If you wish to contribute or participate in the discussions about articles you are invited to join SKYbrary as a registered user

 Actions

Châteauroux-Déols "Marcel Dassault" Airport

From SKYbrary Wiki

LFLX /
Revision as of 20:15, 16 February 2015 by Timo.Kouwenhoven (talk | contribs) (LF Airports CSV import)
(diff) ← Older revision | Latest revision (diff) | Newer revision → (diff)
Airport
ICAO: LFLX – IATA: CHR
Summary
Name Châteauroux-Déols "Marcel Dassault" Airport
Region Europe
Territory France FR.gif
Location , Centre
Serving Chateauroux
Elevation 161.239 m
529 ft
529 ft161.239 m
Type medium airport
Coordinates 46° 51' 43.90" N, 1° 43' 50.40" E
Runways
Designator Length Width Surface ROPS
4/22 3500 m11,482.94 ft
45 m147.638 ft
CON no/no


METAR
Observation LFLX 250430Z AUTO 22016KT 9999 -RA BKN013 OVC023 08/07 Q1013 TEMPO 3000 -RA BKN006 BECMG 24015G25KT
Station Chateauroux
Date/Time 25 February 2020 04:30:00
Wind direction 220°
Wind speed 16 kts
Lowest cloud amount broken clouds
Temperature 8°C
Dew point 7°C
Humidity 93%
QNH 1013 hPa
Weather condition light rain